Location: Unspecified
(0.0000°N, 0.0000°E)
Time: 17:31:01
(UTC+00:00)

Tiros 1 - All Passes

Search period start: 18 January 2018 00:00
Search period end: 28 January 2018 00:00
Orbit: 631 x 664 km, 48.4° (Epoch: 17 January)

Date Brightness Start Highest point End Pass type
(mag) Time Alt. Az. Time Alt. Az. Time Alt. Az.
18 Jan - 01:19:36 10° SSW 01:23:52 35° SE 01:28:06 10° ENE night (unlit)
18 Jan - 03:02:46 10° W 03:05:54 18° NW 03:09:00 10° N night (unlit)
18 Jan - 13:32:04 10° NNW 13:36:45 65° NE 13:41:29 10° SE daylight
18 Jan - 15:18:29 10° SW 15:18:53 10° SW 15:19:18 10° SW daylight
19 Jan - 01:45:19 10° SW 01:49:58 67° NW 01:54:35 10° NNE night (unlit)
19 Jan - 12:17:40 10° N 12:20:48 18° NE 12:23:58 10° E daylight
19 Jan - 13:58:30 10° WNW 14:02:50 36° SW 14:07:14 10° SSE daylight
20 Jan - 00:29:54 10° SSW 00:34:03 31° SE 00:38:10 10° ENE night (unlit)
20 Jan - 02:12:40 10° W 02:16:05 20° NW 02:19:28 10° N night (unlit)
20 Jan - 12:42:19 10° NNW 12:46:55 57° NE 12:51:36 10° SE daylight
20 Jan - 14:27:28 10° WSW 14:29:03 11° SW 14:30:38 10° SSW daylight
21 Jan - 00:55:28 10° SW 01:00:10 76° NW 01:04:49 10° NE night (unlit)
21 Jan - 11:28:11 10° NNE 11:30:59 16° NE 11:33:48 10° E daylight
21 Jan - 13:08:36 10° WNW 13:13:02 41° SW 13:17:30 10° SSE daylight
21 Jan - 23:40:13 10° S 23:44:15 28° SE 23:48:13 10° ENE night (unlit)
22 Jan - 01:22:36 10° WSW 01:26:16 22° NW 01:29:53 10° N night (unlit)
22 Jan - 11:52:34 10° NNW 11:57:07 50° NE 12:01:42 10° SE daylight
22 Jan - 13:37:03 10° WSW 13:39:12 13° SW 13:41:23 10° SSW daylight
23 Jan - 00:05:37 10° SW 00:10:22 86° NW 00:15:02 10° NE night (unlit)
23 Jan - 10:38:47 10° NNE 10:41:09 14° NE 10:43:32 10° E daylight
23 Jan - 12:18:42 10° NW 12:23:12 46° SW 12:27:46 10° SSE daylight
23 Jan - 22:50:33 10° S 22:54:25 25° SE 22:58:15 10° ENE night (unlit)
24 Jan - 00:32:34 10° WSW 00:36:27 25° NW 00:40:18 10° N night (unlit)
24 Jan - 11:02:51 10° NNW 11:07:18 44° NE 11:11:48 10° ESE daylight
24 Jan - 12:46:48 10° W 12:49:22 15° SW 12:51:59 10° SSW daylight
24 Jan - 23:15:48 10° SW 23:20:33 84° SE 23:25:13 10° NE night (unlit)
25 Jan - 09:49:31 10° NNE 09:51:20 12° NE 09:53:10 10° ENE daylight
25 Jan - 11:28:50 10° NW 11:33:23 52° SW 11:38:00 10° SSE daylight
25 Jan - 22:00:54 10° S 22:04:36 22° SE 22:08:15 10° ENE night (unlit)
25 Jan - 23:42:34 10° WSW 23:46:38 28° NW 23:50:39 10° N night (unlit)
26 Jan - 10:13:08 10° NNW 10:17:29 39° NE 10:21:52 10° ESE daylight
26 Jan - 11:56:37 10° W 11:59:33 16° SW 12:02:30 10° S daylight
26 Jan - 22:25:58 10° SSW 22:30:44 74° SE 22:35:24 10° NE night (unlit)
27 Jan - 09:00:34 10° NE 09:01:30 11° NE 09:02:27 10° ENE daylight
27 Jan - 10:38:59 10° NW 10:43:34 59° SW 10:48:14 10° SSE daylight
27 Jan - 21:11:18 10° S 21:14:46 20° SE 21:18:12 10° E visible
27 Jan - 22:52:35 10° WSW 22:56:49 32° NW 23:00:59 10° NNE night (unlit)
